Location: *
(49.5667°N, 1.3667°W)
Time: 18:43:38
(UTC+00:00)

Timation 2 Rocket - Pass Details

Date: 20 September 2019
Orbit: 908 x 1074 km, 70.0° (Epoch: 20 October)

Event Time Altitude Azimuth Distance (km) Brightness Sun altitude
Rises 18:50:20 0° 209° (SSW) 3,772 7.3 -7.5°
Reaches altitude 10° 18:52:57 10° 210° (SSW) 2,802 6.7 -8.0°
Maximum altitude 18:59:31 86° 300° (WNW) 997 4.1 -9.0°
Drops below altitude 10° 19:05:50 10° 30° (NNE) 2,699 6.2 -10.0°
Sets 19:08:20 0° 31° (NNE) 3,626 6.8 -10.4°
